Flag for Argentina Weather past 2 weeks in Salta, Salta, Argentina

Now
73 °F

Broken clouds.


Feels Like: 77 °F
Forecast: 56 / 81 °F
Wind: 6 mph from Northeast

Location: Salta Aerodrome

Current Time: Oct 21, 2014 at 1:07:31 PM

Latest Report: Oct 21, 2014 at 12:00 PM


Visibility: N/A

Pressure: 30.21 "Hg

Humidity: 57%

Dew point: 57 °F

Location of SaltaLocation

Historic Weather in Salta — Graph

°F

Salta temperature yesterday

Maximum temperature yesterday: 64 °F (at 4:00 PM)
Minimum temperature yesterday: 55 °F (at 7:00 AM)
Average temperature yesterday: 61 °F

Past Weeks' High & Low Weather Summary

 TemperatureHumidityPressure
High93 °F (Oct 18, 3:00 PM)100% (Oct 20, 4:00 AM)30.27 "Hg (Oct 20, 4:00 AM)
Low52 °F (Oct 7, 6:00 AM)20% (Oct 18, 6:00 PM)29.68 "Hg (Oct 18, 4:00 PM)
Average70 °F65%30.02 "Hg
* Reported Oct 6 12:00 Noon — Oct 21 12:00 Noon, Salta, Weather by CustomWeather, © 2014

Note: Actual official high and low records may vary slightly from our data, if they occured in-between our weather recording intervals... More about our weather records

Advertising

Salta weather history for previous 24 hours

 ConditionsComfort  
Time TempWeatherWind HumidityBarometerVisibility
12:00 PM
Oct 21
73 °FBroken clouds.6 mph57%30.21 "HgN/A
11:00 AM72 °FPartly sunny.6 mph61%30.24 "HgN/A
10:00 AM66 °FScattered clouds.2 mph73%30.24 "HgN/A
9:00 AM63 °FBroken clouds.No wind88%30.24 "HgN/A
8:00 AM61 °FBroken clouds.No wind94%30.24 "Hg5 mi
7:00 AM59 °FPartly sunny.2 mph94%30.18 "Hg5 mi
6:00 AM59 °FPartly sunny.No wind94%30.18 "HgN/A
5:00 AM61 °FPassing clouds.2 mph88%30.18 "HgN/A
4:00 AM59 °FPassing clouds.3 mph88%30.18 "HgN/A
3:00 AM57 °FPassing clouds.2 mph100%30.21 "HgN/A
2:00 AM57 °FPassing clouds.No wind94%30.21 "HgN/A
12:00 AM59 °FPassing clouds.No wind94%30.21 "HgN/A
11:00 PM
Oct 20
61 °FPassing clouds.2 mph94%30.21 "HgN/A
10:00 PM63 °FLow clouds.2 mph88%30.21 "HgN/A
9:00 PM63 °FPassing clouds.3 mph88%30.18 "HgN/A
8:00 PM63 °FMostly cloudy.No wind83%30.18 "HgN/A
7:00 PM63 °FMostly cloudy.5 mph83%30.15 "HgN/A
6:00 PM64 °FMostly cloudy.8 mph78%30.18 "HgN/A
5:00 PM64 °FMore clouds than sun.8 mph78%30.18 "HgN/A
4:00 PM64 °FMore clouds than sun.6 mph78%30.21 "HgN/A
3:20 PM63 °FMostly cloudy.6 mph83%30.21 "HgN/A
3:00 PM63 °FDrizzle. Mostly cloudy.7 mph83%30.21 "Hg5 mi
2:00 PM63 °FDrizzle. Mostly cloudy.3 mph83%30.24 "Hg5 mi
1:00 PM63 °FMore clouds than sun.8 mph77%30.24 "HgN/A
Weather by CustomWeather, © 2014

See weather overviewHow to use our weather pages